[[{"header":{"parameterUnit":"m.s-1","parameterCategory":2,"la1":30.2991,"la2":30.254,"lo1":-89.0895,"lo2":-89.0444,"dy":0.0017,"dx":0.0017,"nx":28,"ny":28,"refTime":"2023-07-21T09:00:00:Z","depth":"0","parameterNumber":2,"parameterNumberName":"U-component_of_CURRENTS"},"data":[0,0,0,0,0,0,0,0,0,0,0,0,0,0,0,0,0,0,0,0,0,0,0,0,0,0,0,0,0,0,0,0,0,0,0,0,0,0,0,0,0,0,0,0,0,0,0,0,0,0,0,0,0,0,0,0,0,0,0.3024,0.3021,0,0.2924,0.2924,0.2925,0.2923,0.2922,0.2922,0.2921,0.3,0.3002,0.3005,0,0,0,0,0,0,0,0,0,0,0,0,0,0.3113,0.3114,0.3024,0.3021,0.3018,0.2924,0.2924,0.2925,0.2923,0.2922,0.2922,0.2921,0.2999,0.3002,0.3005,0,0,0,0,0,0,0,0,0,0,0,0,0,0.3068,0.3114,0.3024,0.2992,0.2986,0.2924,0.2924,0.2925,0.2923,0.2922,0.2921,0.2921,0.2998,0.3002,0.3005,0.3044,0,0,0.3017,0.3019,0,0,0,0,0,0,0,0,0.3071,0.3068,0.2999,0.2993,0.2987,0.2918,0.2983,0.2967,0.2923,0.2967,0.2921,0.292,0.2977,0.2982,0.299,0.3048,0.3051,0.3017,0.302,0.3021,0.3022,0,0,0,0,0,0,0,0.3074,0.3071,0.3004,0.2996,0.2988,0.2945,0.2942,0.298,0.2996,0.2963,0.2958,0.2917,0.2978,0.2986,0.2992,0.3052,0.3017,0.3021,0.3023,0.3025,0.3067,0.3066,0,0,0,0,0,0,0.3054,0.3075,0.3007,0.2999,0.3006,0.2944,0.294,0.2957,0.2991,0.2989,0.2917,0.2917,0.298,0.2988,0.2995,0.3055,0.3021,0.3025,0.3027,0.3069,0.3067,0.3066,0,0,0,0,0,0,0.3058,0.3052,0.301,0.3015,0.3004,0.2942,0.2961,0.2955,0.2952,0.2951,0.2956,0.2916,0.298,0.2989,0.3078,0.3057,0.3027,0.303,0.307,0.3068,0.3066,0.3167,0,0,0,0,0,0,0.3062,0.3056,0.3092,0.3016,0.3003,0.2977,0.2959,0.2953,0.2918,0.2917,0.2952,0.2959,0.298,0.3072,0.3082,0.3062,0.3033,0.3071,0.3069,0.3067,0.3166,0.3169,0.3173,0,0,0,0,0,0.3067,0.3117,0.3096,0.3087,0.3047,0.2975,0.2968,0.293,0.2919,0.2927,0.2986,0.2957,0.3059,0.3079,0.3089,0.3069,0.3072,0.307,0.3067,0.3164,0.3169,0.3172,0,0,0,0,0,0,0.3126,0.3116,0.3094,0.3125,0.3048,0.2967,0.2956,0.2928,0.2975,0.2975,0.3009,0.3022,0.3085,0.3056,0.3075,0.3061,0.3033,0.3033,0.3102,0.3107,0.3111,0.3036,0.3036,0,0,0,0,0,0.3161,0.3239,0.314,0.3162,0.3112,0.3034,0.3007,0.2963,0.2962,0.2977,0.302,0.3038,0.3078,0.3083,0.3123,0.3142,0.3127,0.3106,0.311,0.3113,0.3052,0.3103,0.3108,0.3057,0.3057,0.3057,0,0,0.3169,0.3186,0.3212,0.3185,0.3117,0.3047,0.3022,0.2952,0.2943,0.2983,0.3044,0.3089,0.3097,0.3141,0.3151,0.3114,0.312,0.311,0.3115,0.3049,0.3102,0.3107,0.3112,0.3055,0.3056,0.3056,0,0,0.3179,0.3235,0.3253,0.3199,0.3101,0.3069,0.3042,0.2967,0.299,0.3038,0.3066,0.309,0.3161,0.3148,0.3151,0.3175,0.3171,0.3173,0.3109,0.3164,0.3169,0.3173,0.3181,0.3185,0.3138,0.3139,0.3139,0,0.316,0.3198,0.3229,0.3178,0.313,0.3071,0.2994,0.301,0.3001,0.3025,0.306,0.3125,0.3141,0.3147,0.315,0.318,0.3216,0.3117,0.3174,0.3178,0.3181,0.3187,0.3191,0.3143,0.3143,0.3142,0.3142,0,0.3158,0.3147,0.3129,0.3098,0.3068,0.2997,0.2963,0.299,0.3022,0.302,0.3079,0.313,0.3134,0.3142,0.3164,0.3159,0.3184,0.322,0.3181,0.3194,0.3198,0.32,0.315,0.3148,0.3147,0.3145,0,0,0.3134,0.3136,0.3108,0.3075,0.3018,0.2977,0.2994,0.2977,0.2981,0.3026,0.3045,0.309,0.3089,0.3082,0.3103,0.3112,0.318,0.3165,0.3166,0.3197,0.3301,0.3188,0.3179,0.3284,0.3284,0.3284,0.3305,0,0.307,0.3019,0.3053,0.2965,0.2895,0.2904,0.2933,0.2931,0.2976,0.301,0.3028,0.3065,0.3078,0.309,0.3108,0.3175,0.3186,0.3167,0.3254,0.3252,0.3176,0.3177,0.3054,0.3051,0.3307,0.3307,0.3307,0,0.2998,0.2994,0.291,0.2908,0.2878,0.2864,0.2893,0.2901,0.2935,0.2974,0.2981,0.3019,0.3012,0.3053,0.3119,0.3135,0.3194,0.3239,0.3244,0.3083,0.3141,0.3069,0.3045,0.308,0.331,0.331,0.3309,0,0.2946,0.2882,0.2854,0.2827,0.281,0.2832,0.286,0.2882,0.2901,0.2935,0.2947,0.2974,0.2993,0.3074,0.313,0.3165,0.322,0.3287,0.3226,0.322,0.3082,0.3061,0.3105,0.333,0.333,0.333,0.333,0,0.2867,0.2823,0.2834,0.2796,0.2779,0.2796,0.2803,0.2831,0.2863,0.2845,0.2913,0.2913,0.3017,0.3061,0.3127,0.3147,0.3221,0.3175,0.3209,0.3111,0.3093,0.3088,0.31,0.3331,0.333,0.333,0.333,0,0.276,0.2776,0.2705,0.2714,0.2731,0.2706,0.2768,0.277,0.2819,0.28,0.2811,0.2884,0.2931,0.3002,0.3109,0.312,0.3082,0.3165,0.3004,0.3014,0.2957,0.2977,0.269,0.2658,0.3088,0.3085,0.3083,0,0.2703,0.2644,0.2617,0.2591,0.2598,0.2609,0.2624,0.2715,0.2717,0.2764,0.2745,0.2805,0.2811,0.2895,0.2922,0.2971,0.2974,0.2891,0.2893,0.2886,0.2938,0.2748,0.2732,0.2775,0.277,0.2766,0.2763,0,0.2524,0.2507,0.2458,0.2432,0.2439,0.2439,0.249,0.2501,0.2573,0.2577,0.2575,0.2596,0.2669,0.2667,0.2726,0.2742,0.2742,0.281,0.2876,0.2708,0.2428,0.2439,0.2816,0.2729,0.2732,0.2735,0.2737,0.2738,0.2352,0.2291,0.2244,0.2229,0.2223,0.2232,0.2228,0.2284,0.2271,0.2243,0.2355,0.2339,0.2479,0.2534,0.2528,0.2503,0.2489,0.2522,0.2553,0.2364,0.2277,0.2523,0.2432,0.2434,0.2435,0.2436,0.2437,0,0.2081,0.2095,0.2066,0.2027,0.198,0.206,0.2085,0.2068,0.2013,0.2044,0.2025,0.2113,0.216,0.2274,0.233,0.2307,0.2169,0.231,0.2099,0.2117,0.2432,0.2373,0.2175,0.2175,0.2175,0.2175,0.2175,0.2175,0.1949,0.1861,0.1907,0.1795,0.1779,0.1709,0.1705,0.1693,0.1717,0.1689,0.1711,0.1801,0.2081,0.2249,0.2273,0.222,0.2134,0.1935,0.2041,0.2404,0.2429,0.2453,0.2405,0.2218,0.2218,0.1601,0.1597,0.1594]},{"header":{"parameterUnit":"m.s-1","parameterCategory":2,"la1":30.2991,"la2":30.254,"lo1":-89.0895,"lo2":-89.0444,"dy":0.0017,"dx":0.0017,"nx":28,"ny":28,"refTime":"2023-07-21T09:00:00:Z","depth":"0","parameterNumber":3,"parameterNumberName":"V-component_of_CURRENTS"},"data":[0,0,0,0,0,0,0,0,0,0,0,0,0,0,0,0,0,0,0,0,0,0,0,0,0,0,0,0,0,0,0,0,0,0,0,0,0,0,0,0,0,0,0,0,0,0,0,0,0,0,0,0,0,0,0,0,0,0,0.0175,0.0174,0,0.0093,0.0092,0.0091,0.0098,0.0099,0.01,0.0102,0.0209,0.021,0.0212,0,0,0,0,0,0,0,0,0,0,0,0,0,0.029,0.0288,0.0175,0.0174,0.0173,0.0093,0.0092,0.009,0.0097,0.0099,0.0101,0.0102,0.0208,0.021,0.0212,0,0,0,0,0,0,0,0,0,0,0,0,0,0.0227,0.0288,0.0175,0.0167,0.0166,0.0093,0.0092,0.009,0.0097,0.0099,0.0101,0.0103,0.0207,0.021,0.0212,0.0188,0,0,0.022,0.0221,0,0,0,0,0,0,0,0,0.023,0.0222,0.0169,0.0168,0.0166,0.0108,0.0171,0.0132,0.0097,0.0123,0.0102,0.0104,0.0192,0.0195,0.0172,0.0193,0.0198,0.022,0.0221,0.0222,0.0223,0,0,0,0,0,0,0,0.0235,0.0226,0.0142,0.0168,0.0166,0.0151,0.0145,0.0163,0.015,0.012,0.0121,0.0112,0.0192,0.0169,0.0175,0.0199,0.022,0.0222,0.0224,0.0224,0.0315,0.0316,0,0,0,0,0,0,0.0246,0.023,0.0144,0.0139,0.0204,0.0148,0.0141,0.0124,0.0146,0.0149,0.011,0.0113,0.0164,0.0172,0.0179,0.0256,0.0222,0.0225,0.0226,0.0314,0.0315,0.0316,0,0,0,0,0,0,0.0249,0.0239,0.0148,0.0184,0.0172,0.0144,0.0125,0.0121,0.0097,0.0136,0.0144,0.0091,0.0166,0.0176,0.0232,0.0257,0.0226,0.0228,0.0313,0.0314,0.0316,0.0344,0,0,0,0,0,0,0.0252,0.024,0.0244,0.0184,0.017,0.0124,0.0123,0.0118,0.0089,0.0091,0.0122,0.0134,0.0168,0.0228,0.0234,0.026,0.023,0.0312,0.0314,0.0315,0.0342,0.0346,0.035,0,0,0,0,0,0.0256,0.0263,0.0245,0.0235,0.0172,0.0124,0.0115,0.0102,0.0087,0.0084,0.0122,0.0133,0.0244,0.0231,0.0238,0.0265,0.0311,0.0313,0.0315,0.034,0.0346,0.035,0,0,0,0,0,0,0.0304,0.0261,0.0242,0.0231,0.0186,0.0126,0.0125,0.0089,0.0103,0.0116,0.0144,0.016,0.0218,0.023,0.0215,0.0295,0.0278,0.0281,0.0295,0.03,0.0304,0.0284,0.0232,0,0,0,0,0,0.0314,0.0323,0.0253,0.0248,0.0222,0.0161,0.0141,0.0118,0.0113,0.0116,0.0137,0.0175,0.0225,0.0255,0.0293,0.033,0.0322,0.0351,0.0355,0.0358,0.0347,0.0382,0.0388,0.0323,0.0323,0.0323,0,0,0.0325,0.0312,0.0309,0.0262,0.0224,0.0196,0.0155,0.012,0.0121,0.013,0.016,0.0186,0.0237,0.0297,0.0322,0.0316,0.0368,0.0361,0.0364,0.035,0.0385,0.0391,0.0396,0.0325,0.0324,0.0324,0,0,0.0354,0.0336,0.0341,0.0311,0.0263,0.0227,0.0211,0.0144,0.0146,0.016,0.0185,0.022,0.0275,0.032,0.0351,0.039,0.0386,0.0405,0.0415,0.045,0.0455,0.046,0.0435,0.0437,0.041,0.041,0.041,0,0.0369,0.0369,0.0333,0.0325,0.0316,0.0239,0.0226,0.0206,0.0177,0.0192,0.0188,0.0257,0.0288,0.0368,0.0385,0.0399,0.04,0.0396,0.0455,0.0459,0.0464,0.0437,0.0439,0.0412,0.0412,0.0412,0.0411,0,0.0386,0.0391,0.039,0.0369,0.0349,0.0331,0.0288,0.0278,0.0261,0.0244,0.0295,0.0325,0.0368,0.0383,0.0398,0.045,0.0431,0.0454,0.0441,0.0472,0.0441,0.0443,0.0414,0.0414,0.0413,0.0413,0,0,0.0382,0.0404,0.0404,0.0417,0.0377,0.0359,0.0369,0.0355,0.0369,0.0352,0.0387,0.0436,0.0417,0.0448,0.0464,0.0481,0.0496,0.0476,0.0477,0.0445,0.0534,0.05,0.0498,0.054,0.0542,0.0542,0.0491,0,0.0399,0.0439,0.0439,0.0459,0.0453,0.0428,0.045,0.0436,0.0431,0.0446,0.0454,0.0493,0.0457,0.0483,0.0491,0.0503,0.0506,0.0504,0.0512,0.051,0.0475,0.0502,0.0519,0.0475,0.0492,0.0493,0.0493,0,0.0374,0.0428,0.0471,0.052,0.0515,0.0527,0.055,0.0558,0.0561,0.0564,0.0571,0.0563,0.0574,0.055,0.0546,0.0551,0.0535,0.0528,0.0528,0.0486,0.0482,0.0452,0.0477,0.0437,0.0495,0.0495,0.0495,0,0.0367,0.0425,0.0488,0.0498,0.0541,0.0574,0.0592,0.0594,0.0614,0.0631,0.0646,0.0642,0.0654,0.0634,0.0576,0.0578,0.0564,0.0576,0.0521,0.0517,0.0524,0.0518,0.0508,0.0582,0.0582,0.0582,0.0582,0,0.0362,0.0401,0.0501,0.0532,0.0597,0.0611,0.0663,0.0672,0.07,0.0727,0.0706,0.0731,0.0682,0.0655,0.06,0.0545,0.0581,0.0513,0.0514,0.053,0.0527,0.0486,0.0451,0.058,0.0581,0.0581,0.0581,0,0.0322,0.0385,0.0448,0.0555,0.0584,0.0624,0.0696,0.0725,0.0758,0.0794,0.0804,0.0799,0.0765,0.0687,0.065,0.0584,0.051,0.0513,0.0495,0.0495,0.0406,0.0371,0.0295,0.0327,0.0444,0.0443,0.0442,0,0.0317,0.0351,0.0465,0.0501,0.0557,0.063,0.0666,0.0728,0.0761,0.0834,0.0852,0.0846,0.0841,0.0739,0.0621,0.0507,0.0486,0.0455,0.0469,0.0394,0.0357,0.0309,0.0341,0.0474,0.0474,0.0473,0.0473,0,0.0324,0.0357,0.0425,0.0494,0.055,0.0623,0.0698,0.0736,0.0808,0.0862,0.092,0.094,0.085,0.076,0.0607,0.0528,0.043,0.0444,0.0404,0.04,0.0313,0.0348,0.0467,0.047,0.047,0.047,0.047,0.0471,0.0323,0.0359,0.0434,0.0485,0.054,0.0612,0.0665,0.0751,0.0828,0.0919,0.0947,0.1018,0.0926,0.0726,0.0581,0.0382,0.0393,0.0361,0.0324,0.0282,0.0318,0.0389,0.0378,0.0377,0.0377,0.0377,0.0377,0,0.0326,0.037,0.0423,0.0491,0.0532,0.0579,0.0675,0.0732,0.0823,0.0948,0.101,0.1096,0.0912,0.0748,0.047,0.0314,0.0274,0.0247,0.0212,0.0258,0.0361,0.0371,0.0314,0.0314,0.0314,0.0314,0.0314,0.0314,0.0337,0.0378,0.0404,0.0467,0.0512,0.058,0.0633,0.0724,0.0834,0.1025,0.1172,0.129,0.1347,0.0688,0.0329,0.0234,0.0169,0.0085,0.0096,0.0177,0.0187,0.0195,0.0198,0.0106,0.0106,0.0044,0.0043,0.0042]}],[{"header":{"parameterUnit":"m.s-1","parameterCategory":2,"la1":30.2991,"la2":30.254,"lo1":-89.0895,"lo2":-89.0444,"dy":0.0017,"dx":0.0017,"nx":28,"ny":28,"refTime":"2023-07-21T09:00:00:Z","depth":"2","parameterNumber":2,"parameterNumberName":"U-component_of_CURRENTS"},"data":[0,0,0,0,0,0,0,0,0,0,0,0,0,0,0,0,0,0,0,0,0,0,0,0,0,0,0,0,0,0,0,0,0,0,0,0,0,0,0,0,0,0,0,0,0,0,0,0,0,0,0,0,0,0,0,0,0,0,0.1828,0.1831,0,0.1944,0.1943,0.1942,0.2021,0.2025,0.2028,0.2031,0.2114,0.2113,0.2112,0,0,0,0,0,0,0,0,0,0,0,0,0,0.1527,0.1531,0.1827,0.1831,0.1835,0.1944,0.1943,0.1941,0.2021,0.2025,0.2029,0.2032,0.2114,0.2113,0.2112,0,0,0,0,0,0,0,0,0,0,0,0,0,0.1625,0.1532,0.1826,0.1909,0.192,0.1944,0.1943,0.1941,0.202,0.2025,0.203,0.2034,0.2114,0.2113,0.2112,0.2008,0,0,0.2108,0.2108,0,0,0,0,0,0,0,0,0.1619,0.1632,0.1893,0.1904,0.1916,0.1998,0.1869,0.1972,0.2019,0.1951,0.2031,0.2037,0.2087,0.2088,0.2059,0.2012,0.2015,0.2108,0.2108,0.2107,0.2107,0,0,0,0,0,0,0,0.1612,0.1627,0.1844,0.1898,0.1912,0.1893,0.191,0.1886,0.1968,0.1958,0.1971,0.2028,0.209,0.206,0.2062,0.2017,0.2108,0.2107,0.2107,0.2106,0.2137,0.2138,0,0,0,0,0,0,0.1659,0.1621,0.1841,0.1851,0.1809,0.1897,0.1915,0.1943,0.1969,0.1987,0.2024,0.2032,0.206,0.2063,0.2066,0.2209,0.2107,0.2106,0.2105,0.2135,0.2137,0.2139,0,0,0,0,0,0,0.1651,0.1675,0.1837,0.1763,0.1786,0.1901,0.193,0.1944,0.1967,0.2026,0.2037,0.2045,0.2063,0.2067,0.2062,0.2204,0.2105,0.2104,0.2133,0.2136,0.2138,0.2327,0,0,0,0,0,0,0.1641,0.167,0.1625,0.1765,0.1793,0.1861,0.1929,0.1944,0.2007,0.2018,0.2045,0.2055,0.2068,0.2064,0.2061,0.2201,0.2103,0.2131,0.2134,0.2137,0.2319,0.2336,0.235,0,0,0,0,0,0.1629,0.1564,0.1621,0.1647,0.1754,0.1863,0.1869,0.1948,0.2003,0.1987,0.2014,0.2057,0.2085,0.206,0.2058,0.2202,0.213,0.2134,0.2137,0.2312,0.2332,0.235,0,0,0,0,0,0,0.1432,0.1574,0.1638,0.1626,0.1753,0.1889,0.1947,0.1956,0.1957,0.1996,0.2019,0.2027,0.2154,0.2075,0.2049,0.2213,0.2137,0.2139,0.2271,0.229,0.2305,0.2198,0.2102,0,0,0,0,0,0.137,0.1342,0.1537,0.1528,0.1675,0.1808,0.1847,0.1887,0.1958,0.1966,0.2015,0.2059,0.2147,0.213,0.2205,0.2179,0.2118,0.2282,0.2298,0.2312,0.2219,0.2217,0.2224,0.215,0.215,0.215,0,0,0.1314,0.1373,0.1371,0.148,0.1666,0.177,0.1844,0.1959,0.1963,0.1972,0.2038,0.2156,0.2173,0.226,0.2298,0.2201,0.2321,0.2316,0.2329,0.2225,0.2221,0.2228,0.2234,0.2152,0.2152,0.2152,0,0,0.1246,0.1306,0.1331,0.1431,0.1642,0.1721,0.1769,0.1952,0.2,0.2029,0.2133,0.2225,0.231,0.2336,0.2361,0.2442,0.2478,0.2572,0.2478,0.2483,0.2488,0.2492,0.2517,0.252,0.249,0.2491,0.2491,0,0.1199,0.1232,0.135,0.1444,0.1557,0.1727,0.1837,0.1867,0.1954,0.2019,0.2082,0.2289,0.2324,0.2393,0.246,0.2483,0.2509,0.243,0.2504,0.2505,0.2505,0.2529,0.253,0.25,0.2499,0.2498,0.2497,0,0.1178,0.1232,0.1332,0.1484,0.156,0.1697,0.1852,0.1922,0.2046,0.2084,0.227,0.2312,0.2408,0.2507,0.2502,0.2574,0.2615,0.2612,0.2462,0.2524,0.2546,0.2545,0.2514,0.251,0.2508,0.2505,0,0,0.1198,0.1282,0.1344,0.1413,0.1609,0.1683,0.1795,0.195,0.2008,0.213,0.2227,0.2381,0.2461,0.2477,0.2546,0.2491,0.2575,0.2539,0.2535,0.2568,0.2645,0.2482,0.2465,0.2643,0.2642,0.2641,0.2694,0,0.1264,0.1299,0.134,0.1465,0.162,0.1762,0.1828,0.1913,0.2034,0.2137,0.2245,0.2388,0.2431,0.2538,0.2502,0.2594,0.2565,0.256,0.2564,0.2561,0.2414,0.2451,0.2278,0.2292,0.2692,0.2691,0.2691,0,0.1344,0.1364,0.1436,0.1516,0.1625,0.1632,0.183,0.1908,0.2061,0.2146,0.2267,0.2397,0.2436,0.2459,0.25,0.2535,0.2577,0.259,0.2594,0.2331,0.2389,0.2271,0.2272,0.2687,0.2687,0.2687,0.2688,0,0.1318,0.1462,0.1472,0.1518,0.163,0.1692,0.179,0.1939,0.2024,0.2184,0.223,0.2344,0.2413,0.2464,0.2542,0.2567,0.2562,0.2596,0.2471,0.2465,0.2231,0.2202,0.2574,0.2574,0.2574,0.2574,0.2574,0,0.1336,0.1405,0.1453,0.1452,0.1575,0.1682,0.1752,0.1894,0.2012,0.2113,0.2243,0.2247,0.2422,0.2484,0.254,0.2484,0.2572,0.2414,0.2435,0.2302,0.228,0.2521,0.2514,0.2576,0.2575,0.2575,0.2575,0,0.1347,0.1317,0.1416,0.1507,0.1546,0.1676,0.1742,0.1783,0.1904,0.2038,0.212,0.2208,0.228,0.2413,0.2493,0.2439,0.244,0.2409,0.2249,0.2243,0.235,0.2353,0.2246,0.224,0.2235,0.2231,0.2227,0,0.1309,0.1356,0.1476,0.1501,0.1546,0.1651,0.1703,0.179,0.1827,0.1979,0.2041,0.215,0.2172,0.2157,0.2141,0.2185,0.2335,0.2021,0.1944,0.2268,0.2302,0.2313,0.2322,0.1788,0.1781,0.1776,0.1771,0,0.1353,0.1414,0.1451,0.1564,0.1587,0.1615,0.1679,0.166,0.1834,0.1838,0.1932,0.1975,0.1969,0.1859,0.1854,0.1839,0.1994,0.1895,0.2287,0.1861,0.1828,0.1865,0.1891,0.1721,0.1726,0.173,0.1733,0.1735,0.1419,0.1487,0.1505,0.1634,0.1663,0.1631,0.1586,0.1582,0.1598,0.168,0.1755,0.1704,0.1666,0.1472,0.1468,0.1493,0.159,0.1563,0.1585,0.1612,0.1511,0.1466,0.1276,0.1279,0.1281,0.1283,0.1284,0,0.1457,0.1459,0.1542,0.1588,0.1607,0.162,0.161,0.1505,0.1459,0.1523,0.1533,0.1256,0.1111,0.1188,0.1114,0.1063,0.1103,0.1071,0.1154,0.1199,0.1241,0.1127,0.0789,0.0788,0.0787,0.0787,0,0,0.1374,0.1385,0.1425,0.1463,0.1538,0.1468,0.1424,0.1312,0.1291,0.1137,0.1082,0.1034,0.1081,0.0882,0.0848,0.087,0.1049,0.083,0.1213,0.1354,0.1397,0.1485,0.1353,0,0,0,0,0]},{"header":{"parameterUnit":"m.s-1","parameterCategory":2,"la1":30.2991,"la2":30.254,"lo1":-89.0895,"lo2":-89.0444,"dy":0.0017,"dx":0.0017,"nx":28,"ny":28,"refTime":"2023-07-21T09:00:00:Z","depth":"2","parameterNumber":3,"parameterNumberName":"V-component_of_CURRENTS"},"data":[0,0,0,0,0,0,0,0,0,0,0,0,0,0,0,0,0,0,0,0,0,0,0,0,0,0,0,0,0,0,0,0,0,0,0,0,0,0,0,0,0,0,0,0,0,0,0,0,0,0,0,0,0,0,0,0,0,0,-0.022,-0.0217,0,-0.023,-0.0233,-0.0236,-0.0229,-0.0226,-0.0223,-0.022,-0.01,-0.0099,-0.0099,0,0,0,0,0,0,0,0,0,0,0,0,0,-0.0291,-0.0292,-0.022,-0.0217,-0.0215,-0.023,-0.0233,-0.0236,-0.023,-0.0226,-0.0222,-0.0218,-0.01,-0.0099,-0.0099,0,0,0,0,0,0,0,0,0,0,0,0,0,-0.0306,-0.0292,-0.022,-0.0191,-0.0186,-0.0229,-0.0233,-0.0237,-0.023,-0.0226,-0.0221,-0.0217,-0.01,-0.0099,-0.0099,-0.019,0,0,-0.0098,-0.0098,0,0,0,0,0,0,0,0,-0.0305,-0.0308,-0.0198,-0.0192,-0.0187,-0.0197,-0.0212,-0.0204,-0.0232,-0.0246,-0.022,-0.0214,-0.0103,-0.0103,-0.0161,-0.0185,-0.018,-0.0098,-0.0097,-0.0097,-0.0097,0,0,0,0,0,0,0,-0.0304,-0.0307,-0.0255,-0.0194,-0.0188,-0.0207,-0.0207,-0.0215,-0.0222,-0.0244,-0.0236,-0.019,-0.0103,-0.0162,-0.0157,-0.0178,-0.0098,-0.0097,-0.0097,-0.0097,0.0016,0.0018,0,0,0,0,0,0,-0.0241,-0.0306,-0.0254,-0.0252,-0.0201,-0.0207,-0.0208,-0.0224,-0.0225,-0.0213,-0.0194,-0.0189,-0.0165,-0.0157,-0.0152,-0.0046,-0.0097,-0.0097,-0.0097,0.0013,0.0016,0.0019,0,0,0,0,0,0,-0.0245,-0.024,-0.0253,-0.0251,-0.025,-0.0207,-0.0227,-0.0225,-0.0252,-0.0182,-0.0173,-0.0212,-0.0161,-0.0152,-0.0144,-0.0048,-0.0097,-0.0096,0.001,0.0014,0.0018,0.0031,0,0,0,0,0,0,-0.0248,-0.0243,-0.0272,-0.0249,-0.0246,-0.0243,-0.0228,-0.0228,-0.0216,-0.0211,-0.0195,-0.0182,-0.0156,-0.0146,-0.0144,-0.0048,-0.0096,0.0006,0.0011,0.0016,0.0027,0.0035,0.0041,0,0,0,0,0,-0.0252,-0.0275,-0.0276,-0.0267,-0.0277,-0.0239,-0.0246,-0.0218,-0.0221,-0.0233,-0.0233,-0.0181,-0.0106,-0.0148,-0.0145,-0.0046,0.0004,0.001,0.0016,0.0023,0.0033,0.0041,0,0,0,0,0,0,-0.0304,-0.0274,-0.0273,-0.0285,-0.0246,-0.0225,-0.0191,-0.0224,-0.0253,-0.023,-0.0217,-0.0205,-0.0127,-0.0116,-0.0161,0.001,-0.0015,-0.0008,-0.0009,0.0,0.0007,-0.0013,-0.0096,0,0,0,0,0,-0.0331,-0.0347,-0.0301,-0.0302,-0.0252,-0.0243,-0.0234,-0.023,-0.0218,-0.0229,-0.0229,-0.0185,-0.0114,-0.0086,-0.004,-0.0015,-0.003,0.0077,0.0084,0.009,0.0079,0.0084,0.0089,0.0039,0.0039,0.0039,0,0,-0.0319,-0.0321,-0.0314,-0.0313,-0.0258,-0.0227,-0.023,-0.0182,-0.0196,-0.0207,-0.0226,-0.0174,-0.0102,-0.0033,0.0008,-0.0009,0.0102,0.0098,0.0102,0.0088,0.0091,0.0095,0.0098,0.0043,0.0043,0.0042,0,0,-0.0289,-0.0308,-0.029,-0.0264,-0.0196,-0.0205,-0.0186,-0.0176,-0.0187,-0.0217,-0.0171,-0.0106,-0.0067,0.0011,0.0062,0.0121,0.0143,0.0196,0.0204,0.021,0.0212,0.0214,0.0208,0.021,0.0195,0.0195,0.0195,0,-0.0273,-0.0279,-0.0272,-0.0237,-0.0193,-0.0186,-0.0142,-0.0172,-0.0196,-0.018,-0.0192,-0.0088,-0.0039,0.0088,0.0129,0.0141,0.0134,0.0158,0.0213,0.0215,0.0217,0.021,0.0211,0.0197,0.0197,0.0196,0.0196,0,-0.0233,-0.0221,-0.0169,-0.0152,-0.0137,-0.0078,-0.0071,-0.0083,-0.0103,-0.0127,-0.0042,-0.0019,0.0064,0.0123,0.0135,0.0231,0.0219,0.0218,0.0174,0.0221,0.0213,0.0214,0.0199,0.0198,0.0198,0.0197,0,0,-0.021,-0.0156,-0.0141,-0.0108,-0.0084,-0.0061,-0.004,-0.0014,0.0011,-0.0016,0.003,0.0128,0.0145,0.0202,0.0254,0.0248,0.0256,0.0234,0.0234,0.02,0.0256,0.0247,0.0246,0.0256,0.0257,0.0257,0.0246,0,-0.0155,-0.0097,-0.0109,-0.0043,0.0027,0.0034,0.0048,0.0053,0.0048,0.0072,0.0129,0.0197,0.0178,0.0249,0.0238,0.0266,0.0259,0.0258,0.0241,0.0241,0.0202,0.0248,0.0221,0.0209,0.0247,0.0247,0.0247,0,-0.0139,-0.0084,-0.0002,0.0045,0.0082,0.008,0.0134,0.015,0.0198,0.0202,0.0258,0.0286,0.034,0.0299,0.0299,0.0299,0.0278,0.026,0.026,0.0241,0.0233,0.0172,0.0209,0.0248,0.0248,0.0248,0.0248,0,-0.0147,-0.0049,0.0012,0.0043,0.0119,0.0146,0.0164,0.0205,0.0237,0.0303,0.033,0.0371,0.0414,0.0375,0.0342,0.0327,0.0305,0.0288,0.0255,0.0253,0.0222,0.0218,0.0271,0.0271,0.0271,0.0271,0.0271,0,-0.0137,-0.0084,0.0025,0.0069,0.0154,0.0188,0.0234,0.0274,0.0334,0.0403,0.041,0.0448,0.0427,0.042,0.0365,0.031,0.0326,0.0256,0.0253,0.023,0.0227,0.0253,0.0251,0.0271,0.0271,0.0271,0.0271,0,-0.0147,-0.0094,0.0012,0.0131,0.0152,0.0227,0.026,0.03,0.036,0.0455,0.0494,0.0511,0.0505,0.0466,0.0423,0.0354,0.0304,0.0285,0.0256,0.0249,0.0238,0.0237,0.0238,0.0237,0.0237,0.0237,0.0237,0,-0.015,-0.008,0.0068,0.0116,0.0169,0.0245,0.0281,0.0322,0.0369,0.0488,0.0545,0.0579,0.0599,0.0504,0.0403,0.0319,0.0319,0.0239,0.0206,0.0239,0.0236,0.0236,0.0236,0.0172,0.0171,0.0171,0.017,0,-0.0077,-0.0018,0.0082,0.0184,0.0226,0.028,0.0336,0.0369,0.0476,0.0542,0.065,0.0689,0.0619,0.0509,0.0391,0.0322,0.0248,0.0224,0.0279,0.0188,0.0177,0.0174,0.0176,0.0165,0.0166,0.0166,0.0166,0.0167,-0.0012,0.0067,0.0175,0.0257,0.0314,0.0356,0.0377,0.0439,0.0535,0.0678,0.0699,0.0746,0.0593,0.0425,0.0299,0.0199,0.0223,0.0163,0.0165,0.0167,0.0165,0.0155,0.0137,0.0137,0.0138,0.0138,0.0138,0,0.0083,0.0134,0.0214,0.031,0.0371,0.0376,0.0452,0.0473,0.0587,0.0713,0.079,0.0634,0.0505,0.0386,0.0222,0.0101,0.0085,0.0069,0.0062,0.0069,0.0074,0.0066,0.0013,0.0012,0.0012,0.0011,0,0,0.0121,0.0196,0.0218,0.0334,0.0403,0.0457,0.0494,0.054,0.0627,0.0714,0.0763,0.0717,0.057,0.0382,0.0208,0.0141,0.0143,0.0122,0.0235,0.0256,0.0263,0.014,0.0137,0,0,0,0,0]}],[{"header":{"parameterUnit":"m.s-1","parameterCategory":2,"la1":30.2991,"la2":30.254,"lo1":-89.0895,"lo2":-89.0444,"dy":0.0017,"dx":0.0017,"nx":28,"ny":28,"refTime":"2023-07-21T09:00:00:Z","depth":"4","parameterNumber":2,"parameterNumberName":"U-component_of_CURRENTS"},"data":[0,0,0,0,0,0,0,0,0,0,0,0,0,0,0,0,0,0,0,0,0,0,0,0,0,0,0,0,0,0,0,0,0,0,0,0,0,0,0,0,0,0,0,0,0,0,0,0,0,0,0,0,0,0,0,0,0,0,-0.0725,-0.0727,0,-0.0778,-0.0777,-0.0777,-0.0811,-0.0812,-0.0814,-0.0815,-0.0807,-0.0806,-0.0804,0,0,0,0,0,0,0,0,0,0,0,0,0,-0.0589,-0.059,-0.0725,-0.0727,-0.0728,-0.0778,-0.0777,-0.0777,-0.0811,-0.0813,-0.0814,-0.0815,-0.0807,-0.0806,-0.0804,0,0,0,0,0,0,0,0,0,0,0,0,0,-0.0635,-0.0591,-0.0725,-0.0759,-0.0763,-0.0778,-0.0777,-0.0777,-0.0811,-0.0813,-0.0814,-0.0816,-0.0808,-0.0806,-0.0804,-0.0757,0,0,-0.0798,-0.0797,0,0,0,0,0,0,0,0,-0.0633,-0.0639,-0.0752,-0.0757,-0.0762,-0.0799,-0.0727,-0.0771,-0.081,-0.0782,-0.0815,-0.0817,-0.0804,-0.0802,-0.0795,-0.0757,-0.0757,-0.0798,-0.0797,-0.0796,-0.0795,0,0,0,0,0,0,0,-0.063,-0.0637,-0.0735,-0.0754,-0.076,-0.075,-0.0758,-0.0735,-0.0773,-0.0784,-0.079,-0.0811,-0.0805,-0.0796,-0.0795,-0.0756,-0.0798,-0.0796,-0.0795,-0.0794,-0.0867,-0.0869,0,0,0,0,0,0,-0.0646,-0.0634,-0.0734,-0.0738,-0.0712,-0.0752,-0.076,-0.0777,-0.0775,-0.078,-0.081,-0.0813,-0.0799,-0.0797,-0.0795,-0.0877,-0.0796,-0.0794,-0.0793,-0.0863,-0.0867,-0.0871,0,0,0,0,0,0,-0.0642,-0.0654,-0.0732,-0.0696,-0.0706,-0.0754,-0.0771,-0.0777,-0.0813,-0.0797,-0.0799,-0.0846,-0.08,-0.0797,-0.0812,-0.0872,-0.0793,-0.0792,-0.086,-0.0865,-0.0869,-0.0952,0,0,0,0,0,0,-0.0638,-0.0652,-0.0662,-0.0697,-0.071,-0.0763,-0.0771,-0.0777,-0.0826,-0.0831,-0.0827,-0.0826,-0.0801,-0.0815,-0.081,-0.0868,-0.079,-0.0856,-0.0862,-0.0867,-0.0946,-0.0959,-0.0971,0,0,0,0,0,-0.0632,-0.0648,-0.0662,-0.0674,-0.0724,-0.0765,-0.0769,-0.0801,-0.0826,-0.0839,-0.0847,-0.0829,-0.085,-0.0814,-0.0808,-0.0867,-0.0853,-0.086,-0.0867,-0.094,-0.0957,-0.0971,0,0,0,0,0,0,-0.0605,-0.0655,-0.067,-0.0704,-0.0742,-0.0775,-0.0796,-0.0823,-0.0838,-0.0851,-0.0837,-0.0835,-0.0866,-0.0861,-0.0823,-0.0912,-0.0861,-0.0867,-0.0919,-0.0934,-0.0947,-0.0959,-0.0788,0,0,0,0,0,-0.0602,-0.0625,-0.0673,-0.0704,-0.0726,-0.0766,-0.0789,-0.0816,-0.0842,-0.0853,-0.0851,-0.0868,-0.0882,-0.0905,-0.089,-0.093,-0.0907,-0.0978,-0.099,-0.1001,-0.1012,-0.1042,-0.1058,-0.0893,-0.0893,-0.0893,0,0,-0.0606,-0.0636,-0.0652,-0.0699,-0.073,-0.0759,-0.0783,-0.0834,-0.0853,-0.0845,-0.0866,-0.0884,-0.0895,-0.0934,-0.0955,-0.0947,-0.103,-0.101,-0.1018,-0.1024,-0.1051,-0.1067,-0.1081,-0.0898,-0.0897,-0.0896,0,0,-0.0619,-0.065,-0.0669,-0.0704,-0.0762,-0.0777,-0.0805,-0.0851,-0.0867,-0.0892,-0.0906,-0.097,-0.097,-0.1011,-0.1029,-0.1108,-0.1072,-0.1129,-0.1226,-0.1256,-0.1269,-0.128,-0.1236,-0.1243,-0.1165,-0.1165,-0.1165,0,-0.0622,-0.0655,-0.0683,-0.0716,-0.0748,-0.0793,-0.0824,-0.0839,-0.0883,-0.0897,-0.091,-0.1,-0.1006,-0.1102,-0.115,-0.1135,-0.1126,-0.1161,-0.127,-0.1281,-0.1291,-0.1243,-0.125,-0.117,-0.1169,-0.1169,-0.1168,0,-0.0654,-0.0683,-0.0706,-0.0749,-0.0774,-0.082,-0.085,-0.0874,-0.0905,-0.0926,-0.1013,-0.1064,-0.1144,-0.1174,-0.1187,-0.1303,-0.1259,-0.1253,-0.1223,-0.1312,-0.1256,-0.1261,-0.1177,-0.1175,-0.1174,-0.1173,0,0,-0.0659,-0.0714,-0.0722,-0.0739,-0.0802,-0.0822,-0.0853,-0.0886,-0.0928,-0.099,-0.1079,-0.1157,-0.124,-0.1273,-0.1343,-0.1402,-0.1459,-0.139,-0.1389,-0.1329,-0.1485,-0.128,-0.1264,-0.1485,-0.1487,-0.1489,-0.1402,0,-0.068,-0.072,-0.0745,-0.0783,-0.0808,-0.0849,-0.0877,-0.0912,-0.0952,-0.1037,-0.1143,-0.1244,-0.1265,-0.1374,-0.1436,-0.1454,-0.1484,-0.148,-0.1422,-0.1419,-0.1213,-0.1268,-0.1497,-0.1406,-0.1407,-0.1408,-0.1408,0,-0.0705,-0.0723,-0.0766,-0.0798,-0.0817,-0.0867,-0.0925,-0.095,-0.1053,-0.1097,-0.1238,-0.1327,-0.1476,-0.1492,-0.1552,-0.1555,-0.1536,-0.1529,-0.1525,-0.1311,-0.1225,-0.131,-0.1416,-0.1416,-0.1415,-0.1415,-0.1414,0,-0.0669,-0.0731,-0.0757,-0.0782,-0.0837,-0.0887,-0.0927,-0.1001,-0.1024,-0.1191,-0.1261,-0.1418,-0.1524,-0.1564,-0.1568,-0.1581,-0.1582,-0.158,-0.1358,-0.134,-0.1511,-0.15,-0.1604,-0.1604,-0.1604,-0.1604,-0.1605,0,-0.0667,-0.0694,-0.0775,-0.0783,-0.085,-0.0905,-0.0991,-0.1027,-0.115,-0.1177,-0.1341,-0.139,-0.1553,-0.1581,-0.1582,-0.146,-0.1579,-0.1366,-0.1318,-0.1543,-0.1537,-0.151,-0.1501,-0.1601,-0.1602,-0.1602,-0.1603,0,-0.0637,-0.0684,-0.0716,-0.0792,-0.0835,-0.0898,-0.1016,-0.106,-0.1168,-0.1237,-0.131,-0.1386,-0.1338,-0.1427,-0.1442,-0.1417,-0.1367,-0.129,-0.1482,-0.1446,-0.1095,-0.1092,-0.1031,-0.1023,-0.1017,-0.1011,-0.1007,0,-0.0611,-0.0629,-0.0704,-0.0747,-0.0812,-0.0923,-0.0981,-0.1077,-0.1101,-0.1161,-0.1167,-0.1188,-0.1213,-0.1051,-0.1137,-0.1102,-0.1089,-0.1113,-0.1157,-0.1084,-0.1044,-0.1051,-0.1056,-0.0997,-0.0995,-0.0993,-0.0992,0,-0.0557,-0.0611,-0.064,-0.0697,-0.0783,-0.085,-0.094,-0.0925,-0.099,-0.1123,-0.0986,-0.0976,-0.0877,-0.0849,-0.0845,-0.0827,-0.1151,-0.1045,-0.1059,-0.1101,-0.1042,-0.101,-0.1022,-0.0969,-0.0972,-0.0974,-0.0976,0,-0.0535,-0.055,-0.058,-0.0655,-0.0711,-0.0713,-0.0782,-0.0774,-0.0789,-0.0848,-0.0764,-0.0741,-0.0788,-0.0692,-0.0673,-0.0657,-0.0638,-0.0707,-0.0738,-0.0764,-0.0725,-0.0614,-0.0364,0,0,0,0,0,-0.0513,-0.0505,-0.0524,-0.0548,-0.0583,-0.0638,-0.0697,-0.0758,-0.0814,-0.0672,-0.0716,-0.0602,-0.0513,-0.0485,-0.0402,-0.054,-0.0659,-0.0451,-0.0758,-0.0844,-0.087,-0.0854,0,0,0,0,0,0,-0.0484,-0.0496,-0.0491,-0.0438,-0.044,-0.0466,-0.0501,-0.0561,-0.0476,-0.0538,-0.0448,-0.0582,-0.046,-0.0523,-0.0388,-0.0396,-0.0582,-0.0469,-0.0467,-0.083,-0.0853,-0.0874,-0.0867,0,0,0,0,0]},{"header":{"parameterUnit":"m.s-1","parameterCategory":2,"la1":30.2991,"la2":30.254,"lo1":-89.0895,"lo2":-89.0444,"dy":0.0017,"dx":0.0017,"nx":28,"ny":28,"refTime":"2023-07-21T09:00:00:Z","depth":"4","parameterNumber":3,"parameterNumberName":"V-component_of_CURRENTS"},"data":[0,0,0,0,0,0,0,0,0,0,0,0,0,0,0,0,0,0,0,0,0,0,0,0,0,0,0,0,0,0,0,0,0,0,0,0,0,0,0,0,0,0,0,0,0,0,0,0,0,0,0,0,0,0,0,0,0,0,0.0229,0.0228,0,0.0166,0.0165,0.0164,0.0154,0.0155,0.0156,0.0157,0.0167,0.0166,0.0165,0,0,0,0,0,0,0,0,0,0,0,0,0,0.0272,0.0271,0.0229,0.0228,0.0228,0.0166,0.0165,0.0164,0.0154,0.0155,0.0156,0.0157,0.0167,0.0166,0.0165,0,0,0,0,0,0,0,0,0,0,0,0,0,0.0232,0.0271,0.0229,0.0218,0.0217,0.0167,0.0165,0.0164,0.0153,0.0155,0.0156,0.0157,0.0167,0.0166,0.0165,0.0133,0,0,0.0163,0.0162,0,0,0,0,0,0,0,0,0.0234,0.023,0.022,0.0219,0.0217,0.0173,0.0184,0.0158,0.0153,0.0173,0.0157,0.0158,0.0177,0.0175,0.0154,0.0133,0.0134,0.0163,0.0162,0.0162,0.0161,0,0,0,0,0,0,0,0.0237,0.0232,0.02,0.022,0.0218,0.0194,0.019,0.0178,0.0167,0.0172,0.0172,0.0171,0.0176,0.0155,0.0154,0.0134,0.0163,0.0162,0.0161,0.0161,0.0165,0.0166,0,0,0,0,0,0,0.0254,0.0235,0.0202,0.0198,0.0234,0.0192,0.0188,0.0182,0.0165,0.0164,0.017,0.017,0.0155,0.0155,0.0155,0.0149,0.0162,0.0161,0.016,0.0165,0.0166,0.0166,0,0,0,0,0,0,0.0256,0.0252,0.0205,0.0219,0.0212,0.0191,0.0185,0.0181,0.0181,0.0163,0.0164,0.0177,0.0156,0.0156,0.0137,0.0149,0.016,0.016,0.0164,0.0165,0.0166,0.0118,0,0,0,0,0,0,0.0257,0.0252,0.025,0.022,0.0212,0.018,0.0184,0.0179,0.0178,0.0179,0.017,0.017,0.0157,0.0138,0.0136,0.0148,0.0159,0.0163,0.0164,0.0166,0.0118,0.0117,0.0115,0,0,0,0,0,0.0259,0.0246,0.025,0.0246,0.021,0.018,0.0173,0.016,0.0178,0.0168,0.0153,0.0172,0.0146,0.0135,0.0133,0.0146,0.0163,0.0164,0.0165,0.0119,0.0117,0.0115,0,0,0,0,0,0,0.0253,0.0244,0.0247,0.0231,0.0214,0.018,0.0167,0.0171,0.015,0.0158,0.0151,0.0149,0.014,0.0154,0.0143,0.0157,0.017,0.0171,0.0135,0.0133,0.0132,0.0126,0.0158,0,0,0,0,0,0.0255,0.0254,0.0234,0.0223,0.0214,0.0198,0.0187,0.0183,0.0164,0.0157,0.014,0.0142,0.014,0.0144,0.0132,0.0128,0.0161,0.0148,0.0147,0.0145,0.0143,0.0216,0.0221,0.0171,0.0171,0.0171,0,0,0.0249,0.0247,0.0243,0.0224,0.0208,0.0172,0.0193,0.0179,0.0154,0.0162,0.0116,0.0123,0.0136,0.0119,0.0123,0.0136,0.0171,0.0147,0.0145,0.0143,0.0218,0.0223,0.0227,0.0172,0.0172,0.0172,0,0,0.0228,0.0235,0.0219,0.02,0.0187,0.0171,0.0176,0.0144,0.0137,0.01,0.0108,0.0119,0.0097,0.0106,0.0115,0.0107,0.0152,0.0126,0.0117,0.0189,0.0193,0.0198,0.0215,0.0221,0.0136,0.0136,0.0136,0,0.0214,0.0196,0.0207,0.0177,0.0154,0.0172,0.0132,0.0119,0.0084,0.0072,0.0085,0.0076,0.0091,0.0096,0.0097,0.0102,0.0137,0.0115,0.0186,0.0191,0.0197,0.0214,0.0221,0.0134,0.0134,0.0134,0.0134,0,0.0174,0.0153,0.0139,0.0109,0.0086,0.006,0.0044,0.0028,0.0032,0.0016,0.0015,0.0032,0.0039,0.006,0.0071,0.0123,0.0129,0.0165,0.0185,0.0198,0.0215,0.0224,0.013,0.0131,0.0132,0.0132,0,0,0.0143,0.0115,0.0109,0.008,0.0049,0.0022,-0.001,-0.0043,-0.0067,-0.006,-0.0082,-0.005,-0.0014,0.0002,0.0044,0.0112,0.0174,0.0159,0.0164,0.0164,0.0301,0.0177,0.0175,0.0232,0.0235,0.0236,0.0285,0,0.01,0.0044,0.0038,-0.0032,-0.0074,-0.0075,-0.0117,-0.0135,-0.0144,-0.0167,-0.0097,-0.0101,-0.004,-0.0018,0.0059,0.0146,0.0201,0.0155,0.0298,0.0301,0.0181,0.0183,0.0243,0.0292,0.0294,0.0296,0.0297,0,0.0049,0.002,-0.0046,-0.0107,-0.0127,-0.0168,-0.022,-0.025,-0.0259,-0.0258,-0.0221,-0.0179,-0.0089,-0.0028,0.0139,0.0112,0.0201,0.0273,0.0277,0.0186,0.0194,0.0287,0.0314,0.0312,0.0311,0.031,0.0309,0,0.0017,-0.0048,-0.0095,-0.0119,-0.0183,-0.0215,-0.0247,-0.0283,-0.031,-0.0301,-0.0308,-0.0211,-0.0148,-0.0004,0.014,0.0159,0.031,0.0356,0.0316,0.0307,0.0426,0.0421,0.047,0.047,0.047,0.047,0.047,0,-0.0032,-0.0083,-0.0114,-0.0149,-0.0218,-0.0252,-0.0325,-0.0342,-0.0369,-0.04,-0.0339,-0.0333,-0.0126,-0.0027,0.0115,0.022,0.0298,0.03,0.0316,0.0399,0.0392,0.043,0.0425,0.0472,0.0471,0.0471,0.0471,0,-0.0073,-0.0089,-0.0153,-0.0211,-0.0237,-0.0284,-0.0365,-0.042,-0.0429,-0.0459,-0.0444,-0.039,-0.028,-0.0123,0.0087,0.0164,0.0291,0.0307,0.0333,0.0352,0.0245,0.0237,0.0272,0.0268,0.0265,0.0262,0.026,0,-0.0099,-0.0133,-0.0188,-0.0231,-0.0264,-0.0337,-0.04,-0.0438,-0.0479,-0.0501,-0.0507,-0.0445,-0.0392,-0.0186,-0.0048,0.015,0.0185,0.0243,0.0289,0.0214,0.0228,0.0225,0.0221,0.0255,0.0254,0.0253,0.0252,0,-0.0152,-0.0159,-0.0199,-0.0265,-0.0332,-0.0427,-0.0501,-0.0499,-0.0531,-0.0557,-0.0522,-0.0455,-0.0383,-0.0227,-0.0103,0.0049,0.0209,0.021,0.022,0.0264,0.0194,0.021,0.021,0.0241,0.0243,0.0244,0.0244,0,-0.018,-0.0204,-0.0231,-0.0291,-0.0387,-0.0466,-0.0502,-0.053,-0.0547,-0.0519,-0.0524,-0.0451,-0.0403,-0.0289,-0.0171,-0.0056,-0.0012,0.0075,0.0093,0.0106,0.003,-0.0085,-0.0118,0,0,0,0,0,-0.0197,-0.0209,-0.0267,-0.0316,-0.0417,-0.0478,-0.0555,-0.0577,-0.0564,-0.0524,-0.0504,-0.0436,-0.0323,-0.0302,-0.0199,-0.0253,-0.0015,-0.0138,0.0092,0.0178,0.0191,0.0116,0,0,0,0,0,0,-0.0211,-0.0242,-0.0246,-0.0324,-0.0378,-0.0494,-0.0542,-0.0551,-0.0509,-0.0481,-0.0406,-0.0417,-0.0297,-0.0353,-0.0192,-0.018,-0.0023,-0.0101,-0.01,0.0171,0.0182,0.0193,0.0121,0,0,0,0,0]}]]